This is the latest recevied weather packets stored in our database for station/object KP4FJC. If no packets are shown the sender has not sent any weather packets the latest 10 day(s).
| Time | Temp. | Humidity | Pressure | Rain* | Wind** | Luminosity | Snow |
|---|---|---|---|---|---|---|---|
| 1778009233 | 32.22° C | 58% | 1016.8 hPa | 0 mm | - | 606 W/m² | - |
| 1778008929 | 31.67° C | 58% | 1016.7 hPa | 0 mm | - | 627 W/m² | - |
| 1778008628 | 32.22° C | 59% | 1016.8 hPa | 0 mm | - | 645 W/m² | - |
| 1778008326 | 32.22° C | 59% | 1016.9 hPa | 0 mm | - | 663 W/m² | - |
| 1778008022 | 32.22° C | 58% | 1016.7 hPa | 0 mm | - | 682 W/m² | - |
| 1778007716 | 32.78° C | 56% | 1017 hPa | 0 mm | - | 701 W/m² | - |
| 1778007413 | 32.78° C | 57% | 1016.9 hPa | 0 mm | - | 725 W/m² | - |
| 1778007110 | 32.78° C | 56% | 1017 hPa | 0 mm | - | 735 W/m² | - |
| 1778006806 | 32.78° C | 57% | 1017.1 hPa | 0 mm | - | 756 W/m² | - |
| 1778006503 | 32.22° C | 58% | 1017.3 hPa | 0 mm | - | 770 W/m² | - |
| 1778006200 | 32.22° C | 57% | 1017 hPa | 0 mm | - | 790 W/m² | - |
| 1778005898 | 31.67° C | 57% | 1017 hPa | 0 mm | - | 812 W/m² | - |
| 1778005593 | 32.78° C | 55% | 1017.3 hPa | 0 mm | - | 805 W/m² | - |
| 1778005291 | 32.78° C | 57% | 1017.1 hPa | 0 mm | - | 810 W/m² | - |
| 1778004987 | 33.33° C | 56% | 1017.3 hPa | 0 mm | - | 827 W/m² | - |
| 1778004685 | 33.33° C | 55% | 1017.4 hPa | 0 mm | - | 849 W/m² | - |
| 1778004380 | 32.78° C | 56% | 1017.6 hPa | 0 mm | - | 860 W/m² | - |
| 1778004078 | 32.22° C | 61% | 1017.6 hPa | 0 mm | - | 860 W/m² | - |
| 1778003774 | 32.22° C | 61% | 1017.5 hPa | 0 mm | - | 860 W/m² | - |
| 1778003470 | 32.78° C | 58% | 1017.8 hPa | 0 mm | - | 883 W/m² | - |
| 1778003167 | 31.67° C | 61% | 1017.8 hPa | 0 mm | - | 891 W/m² | - |
| 1778002863 | 31.67° C | 58% | 1017.8 hPa | 0 mm | - | 896 W/m² | - |
| 1778002560 | 32.22° C | 61% | 1017.9 hPa | 0 mm | - | 902 W/m² | - |
| 1778002257 | 31.67° C | 62% | 1017.9 hPa | 0 mm | - | 473 W/m² | - |
| 1778001955 | 31.67° C | 60% | 1017.7 hPa | 0 mm | - | 934 W/m² | - |
* Rain latest hour (hover to see other rain measurements)
** Current wind speed in m/s (hover to see current wind gust speed)